To NAV CANADA Home Page Login to a new session Search on AWWS site Feedback and Comments Disclaimer Vers la page française équivalente Tips FAQ What's new on the site To the Forecasts and Observations / NOTAM section To "File a Flight Plan" website Publications and other links Update of the User's profile FIC Telephone Numbers My Weather Data Folder Route Weather Data Regional Weather Data Local Weather Data To the Forecasts and Observations / NOTAM section
Request Generated 08/22/2017 at 03:35:15 UTC . Weather information available at that time is displayed.


Go to a specific product

Save this request

NOTAM

NOTAM


SIGMET
To the Product Selector

SIGMETS GFACN32

GFACN32 - No SIGMET bulletins in effect



AIRMET
To the Product Selector

AIRMETS GFACN32

WACN32 CWEG 212339
AIRMET C2 VALID 212335/212335 CWUL-
CZWG WINNIPEG FIR CNCL AIRMET C1 211935/212335
RMK GFACN32 GFACN33
END/WACN23/CWAO



PIREP
To the Product Selector

FIR_WINNIPEG (WG)


UACN10 CYWG 220137
WG
UA /OV CYXL 340050 /TM 0130 /FLDURD /TP SW4 /IC MDT MXD 110-130


METAR/TAF
To the Product Selector

REGINA INTL/SK    

METAR CYQR 220300Z 29003KT 15SM FEW250 14/03 A3013 RMK CI1 CI TR
SLP215 DENSITY ALT 2000FT=
METAR CYQR 220200Z 33005KT 15SM BKN250 16/03 A3010 RMK CI5 SLP203
DENSITY ALT 2300FT=
METAR CYQR 220100Z 34009G15KT 15SM FEW072 SCT250 20/01 A3010 RMK
CU1CI3 CU TR SLP203 DENSITY ALT 2700FT=

TAF CYQR 212338Z 2200/2224 32015KT P6SM FEW080
BECMG 2202/2204 32010KT
BECMG 2207/2209 VRB03KT
FM221100 16005KT P6SM BKN090
RMK NXT FCST BY 220600Z=

MOOSE JAW/AIR VICE MARSHAL C.M. MCEWEN/SK    

SPECI CYMJ 220029Z 33009KT 15SM FEW070 BKN260 21/02 A3012 RMK CU1CI5 LAST OBS/NEXT 221000 UTC SLP207=
METAR CYMJ 220000Z 31011G17KT 15SM FEW070 BKN260 22/02 A3012 RMK CU1CI5 SLP208=

TAF AMD CYMJ 220031Z 2200/2212 FCST CNCLD DUE END OF FLYING PROGRAM
RMK NXT FCST WILL BE ISSUED AT 221115Z=


RADAR PCPN RATE
To the Product Selector
Pacific Canada      Western Canada     

SATELLITE VISIBLE
To the Product Selector
West Canada      

SATELLITE INFRARED
To the Product Selector
West Canada     

GRAPHICAL FA CLOUDS & WEATHER FORECASTS
To the Product Selector
Graphical FA gfacn32      

GRAPHICAL FA ICING, TURBULENCE & FREEZING LEVEL FORECASTS
To the Product Selector
Graphical FA gfacn32      

FDTEXT Low Level FD. Temperatures are not forecast for the 3,000-foot level.
To the Product Selector
STN YQR - REGINA. SASK for use 3000 6000 9000 12000 18000
FDCN01 CWAO FCST BASED ON 220000 DATA VALID 220600 05-09 3112+07 3219+02 3126-03 3138-13
FDCN02 CWAO FCST BASED ON 220000 DATA VALID 221200 09-18 3217+09 3229+02 3228-03 3242-11
FDCN03 CWAO FCST BASED ON 220000 DATA VALID 230000 18-05 2720+12 3026+05 3131+02 3138-11



Your time UTC time
Weather data provided by Environment Canada and NAV CANADA